{"data":{"norad_id":50477,"epoch":"2026-05-24T23:08:27.712032Z","epoch_age_seconds":88520,"freshness":"FRESH","line1":"1 50477U 21132J   26144.96420963  .00000020  00000+0  18979-4 0  9997","line2":"2 50477  87.9169 340.0759 0002056  85.3261 274.8106 13.18687915218559","mean_motion":13.18687915,"eccentricity":0.0002056,"inclination_deg":87.9169,"raan_deg":340.0759,"arg_perigee_deg":85.3261,"mean_anomaly_deg":274.8106,"bstar":1.8979e-5,"rev_number":21855,"period_min":109.19945376158,"perigee_km":1188.1798454951,"apogee_km":1191.2917547905,"semimajor_km":7567.8728001428,"source":"CELESTRAK","updated_at":"2026-05-25T13:38:22.529442Z"}}